Weather History for Gulfport, MS

Change the Weather History Date:

Tuesday, January 8, 2013

  Actual Average Record
Temperature  
Mean Temperature 56 °F -  
Max Temperature 64 °F 59 °F 74 °F (1975)
Min Temperature 48 °F 41 °F 24 °F (1958)
Degree Days  
Heating Degree Days 9    
Growing Degree Days 6 (Base 50)    
Moisture  
Dew Point 51 °F    
Average Humidity 80    
Maximum Humidity 90    
Minimum Humidity 69    
Precipitation  
Precipitation 0.00 in - - ()
Sea Level Pressure  
Sea Level Pressure 30.17 in    
Wind  
Wind Speed 6 mph (ENE)    
Max Wind Speed 18 mph    
Max Gust Speed 24 mph    
Visibility 10 miles    
Events      
Averages and records for this station are not official NWS values.
T = Trace of Precipitation, MM = Missing Value Source: NWS Daily Summary

Daily Weather History Graph

Daily Weather History Graph

Search for Another Location

Airport:

Trip Planner

Search our weather history database for the weather conditions in past years. The results will help you decide how hot, cold, wet, or windy it might be!

Date:

Astronomy

Jan. 08, 2013 Rise Set
Actual Time 6:54 AM CST 5:12 PM CST
Civil Twilight 6:27 AM CST 5:38 PM CST
Nautical Twilight 5:58 AM CST 6:08 PM CST
Astronomical Twilight 5:29 AM CST 6:37 PM CST
Moon 3:28 AM CST (1/8) 2:13 PM CST (1/8)
Length of Visible Light 11h 10m
Length of Day
10h 18m
Waning Crescent, 13% of the Moon is Illuminated
Jan 8
Waning Crescent
Jan 11
New
Jan 18
First Quarter
Jan 26
Full
Feb 3
Last Quarter

Hourly Weather History & Observations

Time (CST) Temp. Dew Point Humidity Pressure Visibility Wind Dir Wind Speed Gust Speed Precip Events Conditions
12:53 AM 48.9 °F 39.0 °F 69% 30.19 in 10.0 mi Calm Calm - N/A   Scattered Clouds
1:53 AM 48.0 °F 39.9 °F 74% 30.18 in 10.0 mi Calm Calm - N/A   Mostly Cloudy
2:53 AM 48.0 °F 39.0 °F 71% 30.17 in 10.0 mi NNE 3.5 mph - N/A   Clear
3:53 AM 48.9 °F 39.9 °F 71% 30.16 in 10.0 mi ENE 4.6 mph - N/A   Partly Cloudy
4:53 AM 48.9 °F 39.9 °F 71% 30.16 in 10.0 mi NE 4.6 mph - N/A   Overcast
5:53 AM 48.9 °F 41.0 °F 74% 30.17 in 10.0 mi NE 4.6 mph - N/A   Clear
6:23 AM 50.0 °F 42.8 °F 76% 30.19 in 10.0 mi NNE 3.5 mph - N/A   Mostly Cloudy
6:53 AM 50.0 °F 42.1 °F 74% 30.19 in 10.0 mi NE 6.9 mph - N/A   Overcast
7:53 AM 51.1 °F 44.1 °F 77% 30.21 in 10.0 mi NE 5.8 mph - N/A   Overcast
8:32 AM 51.8 °F 46.4 °F 82% 30.21 in 10.0 mi ENE 9.2 mph - N/A   Overcast
8:53 AM 53.6 °F 46.4 °F 77% 30.22 in 10.0 mi ENE 6.9 mph - N/A   Overcast
9:53 AM 55.9 °F 50.0 °F 80% 30.22 in 10.0 mi ENE 5.8 mph - N/A   Overcast
10:50 AM 60.8 °F 53.6 °F 77% 30.22 in 10.0 mi East 9.2 mph - N/A   Overcast
10:53 AM 60.1 °F 54.0 °F 80% 30.22 in 10.0 mi East 10.4 mph - N/A   Overcast
11:53 AM 61.0 °F 55.0 °F 81% 30.19 in 10.0 mi East 8.1 mph - N/A   Overcast
12:53 PM 61.0 °F 55.9 °F 83% 30.16 in 10.0 mi East 9.2 mph - N/A   Overcast
1:53 PM 63.0 °F 57.0 °F 81% 30.14 in 10.0 mi East 10.4 mph - N/A   Overcast
2:53 PM 64.0 °F 57.9 °F 80% 30.13 in 10.0 mi East 10.4 mph - N/A   Mostly Cloudy
3:53 PM 62.1 °F 57.9 °F 86% 30.14 in 10.0 mi East 13.8 mph - 0.00 in   Overcast
4:53 PM 62.1 °F 57.9 °F 86% 30.12 in 10.0 mi East 11.5 mph - N/A   Overcast
5:53 PM 62.1 °F 57.9 °F 86% 30.14 in 10.0 mi East 11.5 mph - N/A   Mostly Cloudy
6:53 PM 62.1 °F 57.9 °F 86% 30.13 in 10.0 mi East 13.8 mph 21.9 mph N/A   Scattered Clouds
7:53 PM 61.0 °F 57.0 °F 87% 30.13 in 10.0 mi East 9.2 mph - N/A   Scattered Clouds
8:34 PM 60.8 °F 57.2 °F 88% 30.14 in 10.0 mi East 12.7 mph - N/A   Mostly Cloudy
8:53 PM 61.0 °F 57.0 °F 87% 30.15 in 10.0 mi East 12.7 mph - N/A   Overcast
9:53 PM 62.1 °F 59.0 °F 90% 30.16 in 8.0 mi East 18.4 mph 24.2 mph N/A   Overcast
10:53 PM 62.1 °F 59.0 °F 90% 30.16 in 6.0 mi East 11.5 mph - N/A   Overcast
11:53 PM 63.0 °F 60.1 °F 90% 30.16 in 8.0 mi East 15.0 mph - N/A   Overcast